Time,TemperatureF,DewpointF,PressureIn,WindDirection,WindDirectionDegrees,WindSpeedMPH,WindSpeedGustMPH,Humidity,HourlyPrecipIn,Conditions,Clouds,dailyrainin,SoftwareType,DateUTC
2013-05-10 00:04:00,57.5,55.4,30.01,NW,324,0.0,0.0,92,0.00,,,-99.99,Meteorologica,2013-05-10 05:04:00,
2013-05-10 00:09:00,57.6,55.4,30.01,North,350,2.6,5.9,92,0.00,,,-99.99,Meteorologica,2013-05-10 05:09:00,
2013-05-10 00:14:00,57.7,55.5,30.01,NNW,346,3.4,6.3,92,0.00,,,-99.99,Meteorologica,2013-05-10 05:14:00,
2013-05-10 00:19:00,57.8,55.6,30.01,North,351,0.0,5.4,92,0.00,,,-99.99,Meteorologica,2013-05-10 05:19:00,
2013-05-10 00:24:00,57.9,55.7,30.01,NNE,18,0.0,4.7,92,0.00,,,-99.99,Meteorologica,2013-05-10 05:24:00,
2013-05-10 00:29:00,58.0,55.8,30.01,North,350,3.8,6.0,92,0.00,,,-99.99,Meteorologica,2013-05-10 05:29:00,
2013-05-10 00:34:00,58.1,55.8,30.02,North,351,0.0,4.5,92,0.00,,,-99.99,Meteorologica,2013-05-10 05:34:00,
2013-05-10 00:39:00,58.1,55.8,30.03,NNW,330,3.1,5.5,92,0.00,,,-99.99,Meteorologica,2013-05-10 05:39:00,
2013-05-10 00:44:00,58.4,56.0,30.03,North,359,1.5,8.1,92,0.00,,,-99.99,Meteorologica,2013-05-10 05:44:00,
2013-05-10 00:49:00,58.5,56.1,30.03,North,359,0.0,0.0,91,0.00,,,-99.99,Meteorologica,2013-05-10 05:49:00,
2013-05-10 00:54:00,58.6,56.2,30.03,North,359,0.0,0.0,91,0.00,,,-99.99,Meteorologica,2013-05-10 05:54:00,
2013-05-10 00:59:00,58.7,56.3,30.04,SE,132,0.5,4.5,91,0.00,,,-99.99,Meteorologica,2013-05-10 05:59:00,
2013-05-10 01:04:00,58.7,56.3,30.03,NNW,344,0.0,0.0,91,0.00,,,-99.99,Meteorologica,2013-05-10 06:04:00,
2013-05-10 01:09:00,58.7,56.2,30.03,NNW,344,0.0,0.0,91,0.00,,,-99.99,Meteorologica,2013-05-10 06:09:00,
2013-05-10 01:14:00,58.7,56.2,30.04,NNW,344,0.0,0.0,91,0.00,,,-99.99,Meteorologica,2013-05-10 06:14:00,
2013-05-10 01:19:00,58.8,56.3,30.03,NNW,344,0.0,0.0,91,0.00,,,-99.99,Meteorologica,2013-05-10 06:19:00,
2013-05-10 01:24:00,58.8,56.3,30.04,NNW,344,0.0,0.0,91,0.00,,,-99.99,Meteorologica,2013-05-10 06:24:00,
2013-05-10 01:29:00,58.8,56.3,30.04,NNW,344,0.0,0.0,91,0.00,,,-99.99,Meteorologica,2013-05-10 06:29:00,
2013-05-10 01:34:00,58.8,56.3,30.04,NNW,344,0.0,0.0,91,0.00,,,-99.99,Meteorologica,2013-05-10 06:34:00,
2013-05-10 01:39:00,58.7,56.2,30.04,NNW,344,0.0,0.0,91,0.00,,,-99.99,Meteorologica,2013-05-10 06:39:00,
2013-05-10 01:44:00,58.8,56.3,30.03,NNW,344,0.0,0.0,91,0.00,,,-99.99,Meteorologica,2013-05-10 06:44:00,
2013-05-10 01:50:00,58.8,56.3,30.03,North,355,0.0,5.2,91,0.00,,,-99.99,Meteorologica,2013-05-10 06:50:00,
2013-05-10 01:55:00,58.7,56.2,30.03,North,7,4.4,6.5,91,0.00,,,-99.99,Meteorologica,2013-05-10 06:55:00,
2013-05-10 02:00:00,58.8,56.2,30.03,North,359,0.0,5.6,91,0.00,,,-99.99,Meteorologica,2013-05-10 07:00:00,
2013-05-10 02:05:00,58.8,56.2,30.04,NNE,16,1.9,5.5,91,0.00,,,-99.99,Meteorologica,2013-05-10 07:05:00,
2013-05-10 02:10:00,58.9,56.3,30.03,NNE,16,0.0,0.0,91,0.00,,,-99.99,Meteorologica,2013-05-10 07:10:00,
2013-05-10 02:15:00,58.9,56.3,30.03,NNE,16,0.0,0.0,91,0.00,,,-99.99,Meteorologica,2013-05-10 07:15:00,
2013-05-10 02:20:00,58.9,56.3,30.03,NNE,16,0.0,0.0,91,0.00,,,-99.99,Meteorologica,2013-05-10 07:20:00,
2013-05-10 02:25:00,58.9,56.3,30.03,NNE,16,0.0,0.0,91,0.00,,,-99.99,Meteorologica,2013-05-10 07:25:00,
2013-05-10 02:30:00,58.9,56.3,30.03,NNE,16,0.0,0.0,91,0.00,,,-99.99,Meteorologica,2013-05-10 07:30:00,
2013-05-10 02:35:00,58.8,56.2,30.03,NNE,16,0.0,0.0,91,0.00,,,-99.99,Meteorologica,2013-05-10 07:35:00,
2013-05-10 02:40:00,58.8,56.2,30.03,NNE,16,0.0,0.0,91,0.00,,,-99.99,Meteorologica,2013-05-10 07:40:00,
2013-05-10 02:45:00,58.8,56.2,30.03,NNE,16,0.0,0.0,91,0.00,,,-99.99,Meteorologica,2013-05-10 07:45:00,
2013-05-10 02:50:00,58.7,56.2,30.03,NNE,16,0.0,0.0,91,0.00,,,-99.99,Meteorologica,2013-05-10 07:50:00,
2013-05-10 02:55:00,58.7,56.1,30.03,NNE,16,0.0,0.0,91,0.00,,,-99.99,Meteorologica,2013-05-10 07:55:00,
2013-05-10 03:00:00,58.6,56.0,30.03,NNE,16,0.0,0.0,91,0.00,,,-99.99,Meteorologica,2013-05-10 08:00:00,
2013-05-10 03:05:00,58.5,55.9,30.03,NNE,16,0.0,0.0,91,0.00,,,-99.99,Meteorologica,2013-05-10 08:05:00,
2013-05-10 03:10:00,58.5,56.0,30.03,NNE,16,0.0,0.0,91,0.00,,,-99.99,Meteorologica,2013-05-10 08:10:00,
2013-05-10 03:15:00,58.4,55.9,30.03,NNE,16,0.0,0.0,91,0.00,,,-99.99,Meteorologica,2013-05-10 08:15:00,
2013-05-10 03:20:00,58.3,55.8,30.03,NNE,16,0.0,0.0,91,0.00,,,-99.99,Meteorologica,2013-05-10 08:20:00,
2013-05-10 03:25:00,58.2,55.7,30.03,North,359,0.0,3.3,91,0.00,,,-99.99,Meteorologica,2013-05-10 08:25:00,
2013-05-10 03:30:00,58.1,55.6,30.03,WNW,303,2.1,4.5,91,0.00,,,-99.99,Meteorologica,2013-05-10 08:30:00,
2013-05-10 03:35:00,58.1,55.6,30.03,NW,307,0.0,4.4,91,0.00,,,-99.99,Meteorologica,2013-05-10 08:35:00,
2013-05-10 03:40:00,57.9,55.3,30.03,NNW,327,3.0,7.9,91,0.00,,,-99.99,Meteorologica,2013-05-10 08:40:00,
2013-05-10 03:45:00,57.8,55.2,30.03,ESE,123,2.1,6.4,91,0.00,,,-99.99,Meteorologica,2013-05-10 08:45:00,
2013-05-10 03:50:00,57.5,55.0,30.03,North,0,0.9,5.3,91,0.00,,,-99.99,Meteorologica,2013-05-10 08:50:00,
2013-05-10 03:55:00,57.3,54.9,30.03,North,0,0.0,0.0,91,0.00,,,-99.99,Meteorologica,2013-05-10 08:55:00,
2013-05-10 04:00:00,57.1,54.7,30.03,SW,232,4.6,7.4,91,0.00,,,-99.99,Meteorologica,2013-05-10 09:00:00,
2013-05-10 04:05:00,57.0,54.6,30.04,NW,316,0.7,3.5,91,0.00,,,-99.99,Meteorologica,2013-05-10 09:05:00,
2013-05-10 04:10:00,56.7,54.1,30.04,NNE,12,6.1,7.9,91,0.00,,,-99.99,Meteorologica,2013-05-10 09:10:00,
2013-05-10 04:15:00,56.5,53.9,30.04,ESE,116,4.6,6.3,91,0.00,,,-99.99,Meteorologica,2013-05-10 09:15:00,
2013-05-10 04:21:00,56.1,53.5,30.04,North,351,2.1,8.7,91,0.00,,,-99.99,Meteorologica,2013-05-10 09:21:00,
2013-05-10 04:26:00,55.9,53.3,30.05,NNW,343,0.0,5.6,91,0.00,,,-99.99,Meteorologica,2013-05-10 09:26:00,
2013-05-10 04:31:00,55.6,53.0,30.05,NNW,343,0.0,0.0,91,0.00,,,-99.99,Meteorologica,2013-05-10 09:31:00,
2013-05-10 04:36:00,55.2,52.7,30.06,NNW,343,0.0,0.0,91,0.00,,,-99.99,Meteorologica,2013-05-10 09:36:00,
2013-05-10 04:41:00,55.0,52.6,30.06,NNW,343,0.0,0.0,91,0.00,,,-99.99,Meteorologica,2013-05-10 09:41:00,
2013-05-10 04:46:00,54.9,52.5,30.06,NNW,343,0.0,0.0,91,0.00,,,-99.99,Meteorologica,2013-05-10 09:46:00,
2013-05-10 04:51:00,54.9,52.5,30.05,North,5,1.0,3.5,91,0.00,,,-99.99,Meteorologica,2013-05-10 09:51:00,
2013-05-10 04:56:00,54.9,52.5,30.06,North,359,2.7,5.3,91,0.00,,,-99.99,Meteorologica,2013-05-10 09:56:00,
2013-05-10 05:01:00,54.9,52.5,30.06,NNE,14,0.0,6.0,91,0.00,,,-99.99,Meteorologica,2013-05-10 10:01:00,
2013-05-10 05:06:00,55.0,52.6,30.06,North,8,1.4,7.4,91,0.00,,,-99.99,Meteorologica,2013-05-10 10:06:00,
2013-05-10 05:11:00,55.1,52.6,30.06,NNE,15,0.0,6.5,91,0.00,,,-99.99,Meteorologica,2013-05-10 10:11:00,
2013-05-10 05:16:00,55.0,52.2,30.06,ESE,120,6.8,9.3,90,0.00,,,-99.99,Meteorologica,2013-05-10 10:16:00,
2013-05-10 05:21:00,55.1,52.4,30.06,NNE,26,4.3,7.4,90,0.00,,,-99.99,Meteorologica,2013-05-10 10:21:00,
2013-05-10 05:26:00,55.2,52.4,30.07,North,354,3.6,6.3,90,0.00,,,-99.99,Meteorologica,2013-05-10 10:26:00,
2013-05-10 05:31:00,55.2,52.3,30.07,NNE,13,4.7,7.2,90,0.00,,,-99.99,Meteorologica,2013-05-10 10:31:00,
2013-05-10 05:36:00,55.2,52.5,30.07,SW,232,3.5,6.9,90,0.00,,,-99.99,Meteorologica,2013-05-10 10:36:00,
2013-05-10 05:41:00,55.2,52.5,30.07,NNE,25,4.8,6.6,90,0.00,,,-99.99,Meteorologica,2013-05-10 10:41:00,
2013-05-10 05:46:00,55.2,52.5,30.07,NNW,331,3.8,6.1,90,0.00,,,-99.99,Meteorologica,2013-05-10 10:46:00,
2013-05-10 05:51:00,55.0,52.2,30.07,NNW,343,4.8,7.0,90,0.00,,,-99.99,Meteorologica,2013-05-10 10:51:00,
2013-05-10 05:56:00,54.8,52.0,30.08,NNE,16,2.5,7.5,90,0.00,,,-99.99,Meteorologica,2013-05-10 10:56:00,
2013-05-10 06:01:00,54.8,52.0,30.08,ENE,59,1.3,5.2,90,0.00,,,-99.99,Meteorologica,2013-05-10 11:01:00,
2013-05-10 06:06:00,54.6,51.7,30.08,ESE,117,4.8,7.9,90,0.00,,,-99.99,Meteorologica,2013-05-10 11:06:00,
2013-05-10 06:11:00,54.4,51.5,30.08,NNW,343,2.6,9.7,89,0.00,,,-99.99,Meteorologica,2013-05-10 11:11:00,
2013-05-10 06:16:00,54.3,51.3,30.09,North,356,4.1,6.4,89,0.00,,,-99.99,Meteorologica,2013-05-10 11:16:00,
2013-05-10 06:21:00,54.3,51.5,30.08,WSW,240,3.3,5.5,90,0.00,,,-99.99,Meteorologica,2013-05-10 11:21:00,
2013-05-10 06:26:00,54.4,51.5,30.08,NW,304,0.1,6.5,90,0.00,,,-99.99,Meteorologica,2013-05-10 11:26:00,
2013-05-10 06:31:00,54.2,51.4,30.08,NW,324,3.6,6.6,90,0.00,,,-99.99,Meteorologica,2013-05-10 11:31:00,
2013-05-10 06:36:00,54.2,51.4,30.09,NNW,335,3.1,5.7,90,0.00,,,-99.99,Meteorologica,2013-05-10 11:36:00,
2013-05-10 06:41:00,54.2,51.4,30.09,NNE,28,6.2,7.4,90,0.00,,,-99.99,Meteorologica,2013-05-10 11:41:00,
2013-05-10 06:46:00,54.1,51.2,30.09,North,9,6.3,8.7,90,0.00,,,-99.99,Meteorologica,2013-05-10 11:46:00,
2013-05-10 06:51:00,54.0,51.0,30.09,NNW,337,4.4,7.9,89,0.00,,,-99.99,Meteorologica,2013-05-10 11:51:00,
2013-05-10 06:56:00,54.1,50.6,30.08,SE,139,6.9,10.0,88,0.00,,,-99.99,Meteorologica,2013-05-10 11:56:00,
2013-05-10 07:01:00,54.1,50.7,30.09,SE,127,7.5,9.8,88,0.00,,,-99.99,Meteorologica,2013-05-10 12:01:00,
2013-05-10 07:06:00,54.3,50.9,30.09,SE,126,5.4,9.6,88,0.00,,,-99.99,Meteorologica,2013-05-10 12:06:00,
2013-05-10 07:11:00,54.3,50.7,30.09,WSW,237,5.4,7.8,87,0.00,,,-99.99,Meteorologica,2013-05-10 12:11:00,
2013-05-10 07:16:00,54.2,51.1,30.09,SE,130,4.0,10.2,89,0.00,,,-99.99,Meteorologica,2013-05-10 12:16:00,
2013-05-10 07:21:00,54.4,51.5,30.08,NNW,332,3.5,6.7,90,0.00,,,-99.99,Meteorologica,2013-05-10 12:21:00,
2013-05-10 07:26:00,54.3,51.4,30.09,NNW,335,3.5,6.9,90,0.00,,,-99.99,Meteorologica,2013-05-10 12:26:00,
2013-05-10 07:31:00,54.2,51.2,30.08,ESE,120,4.6,8.1,89,0.00,,,-99.99,Meteorologica,2013-05-10 12:31:00,
2013-05-10 07:36:00,54.2,50.9,30.09,North,8,5.9,9.1,88,0.00,,,-99.99,Meteorologica,2013-05-10 12:36:00,
2013-05-10 07:41:00,54.3,51.1,30.09,NNE,32,5.2,6.8,88,0.00,,,-99.99,Meteorologica,2013-05-10 12:41:00,
2013-05-10 07:46:00,54.3,51.1,30.09,SE,134,4.7,6.6,89,0.00,,,-99.99,Meteorologica,2013-05-10 12:46:00,
2013-05-10 07:51:00,54.3,51.0,30.09,NNE,24,6.9,9.8,88,0.00,,,-99.99,Meteorologica,2013-05-10 12:51:00,
2013-05-10 07:56:00,54.4,51.2,30.09,WSW,241,5.1,8.5,89,0.00,,,-99.99,Meteorologica,2013-05-10 12:56:00,
2013-05-10 08:01:00,54.3,51.0,30.09,North,6,5.3,9.6,88,0.00,,,-99.99,Meteorologica,2013-05-10 13:01:00,
2013-05-10 08:06:00,54.3,51.1,30.09,NNW,347,5.1,7.8,88,0.00,,,-99.99,Meteorologica,2013-05-10 13:06:00,
2013-05-10 08:11:00,54.5,51.4,30.09,NNW,339,3.9,7.7,89,0.00,,,-99.99,Meteorologica,2013-05-10 13:11:00,
2013-05-10 08:16:00,54.5,51.1,30.09,North,352,5.3,9.9,88,0.00,,,-99.99,Meteorologica,2013-05-10 13:16:00,
2013-05-10 08:21:00,54.7,51.3,30.09,NNE,32,3.6,7.1,88,0.00,,,-99.99,Meteorologica,2013-05-10 13:21:00,
2013-05-10 08:26:00,54.6,51.0,30.09,SE,130,5.4,12.4,87,0.00,,,-99.99,Meteorologica,2013-05-10 13:26:00,
2013-05-10 08:31:00,54.9,51.3,30.09,North,349,5.8,8.0,87,0.00,,,-99.99,Meteorologica,2013-05-10 13:31:00,
2013-05-10 08:36:00,55.0,51.3,30.09,SW,230,7.5,11.1,87,0.00,,,-99.99,Meteorologica,2013-05-10 13:36:00,
2013-05-10 08:41:00,55.0,51.5,30.09,North,351,5.4,8.5,88,0.00,,,-99.99,Meteorologica,2013-05-10 13:41:00,
2013-05-10 08:46:00,55.0,51.0,30.09,ESE,123,7.0,9.2,86,0.00,,,-99.99,Meteorologica,2013-05-10 13:46:00,
2013-05-10 08:51:00,55.1,51.6,30.09,NE,37,3.3,8.7,87,0.00,,,-99.99,Meteorologica,2013-05-10 13:51:00,
2013-05-10 08:56:00,55.1,51.1,30.09,NNE,32,4.5,12.1,86,0.00,,,-99.99,Meteorologica,2013-05-10 13:56:00,
2013-05-10 09:01:00,55.3,51.3,30.10,NNW,347,5.4,10.3,86,0.00,,,-99.99,Meteorologica,2013-05-10 14:01:00,
2013-05-10 09:06:00,55.2,51.4,30.10,SSE,150,5.2,9.4,86,0.00,,,-99.99,Meteorologica,2013-05-10 14:06:00,
2013-05-10 09:11:00,55.3,51.3,30.10,NNE,24,7.0,9.8,86,0.00,,,-99.99,Meteorologica,2013-05-10 14:11:00,
2013-05-10 09:16:00,55.0,50.8,30.10,NNE,33,5.8,11.2,85,0.00,,,-99.99,Meteorologica,2013-05-10 14:16:00,
2013-05-10 09:21:00,55.2,51.0,30.10,NNW,341,5.4,7.6,85,0.00,,,-99.99,Meteorologica,2013-05-10 14:21:00,
2013-05-10 09:26:00,55.3,51.3,30.10,NNE,15,6.1,10.8,86,0.00,,,-99.99,Meteorologica,2013-05-10 14:26:00,
2013-05-10 09:31:00,55.1,50.8,30.10,SE,128,8.0,14.2,85,0.00,,,-99.99,Meteorologica,2013-05-10 14:31:00,
2013-05-10 09:36:00,55.1,50.8,30.10,NNW,331,5.7,10.2,85,0.00,,,-99.99,Meteorologica,2013-05-10 14:36:00,
2013-05-10 09:41:00,55.3,51.4,30.10,NE,38,6.8,13.0,86,0.00,,,-99.99,Meteorologica,2013-05-10 14:41:00,
2013-05-10 09:46:00,55.5,51.5,30.10,NNE,12,4.1,9.1,86,0.00,,,-99.99,Meteorologica,2013-05-10 14:46:00,
2013-05-10 09:51:00,55.4,51.3,30.11,NNE,16,7.8,12.8,85,0.00,,,-99.99,Meteorologica,2013-05-10 14:51:00,
2013-05-10 09:56:00,55.3,50.9,30.11,NNW,340,6.1,11.4,85,0.00,,,-99.99,Meteorologica,2013-05-10 14:56:00,
2013-05-10 10:01:00,55.2,50.7,30.11,NE,40,7.3,10.5,84,0.00,,,-99.99,Meteorologica,2013-05-10 15:01:00,
2013-05-10 10:06:00,55.2,50.7,30.11,North,350,6.3,10.8,84,0.00,,,-99.99,Meteorologica,2013-05-10 15:06:00,
2013-05-10 10:11:00,55.4,51.2,30.11,ESE,119,5.5,7.8,85,0.00,,,-99.99,Meteorologica,2013-05-10 15:11:00,
2013-05-10 10:16:00,55.7,51.0,30.11,NNW,347,6.2,9.1,84,0.00,,,-99.99,Meteorologica,2013-05-10 15:16:00,
2013-05-10 10:21:00,56.1,52.0,30.11,NNW,347,4.2,6.7,86,0.00,,,-99.99,Meteorologica,2013-05-10 15:21:00,
2013-05-10 10:26:00,56.5,51.8,30.11,NNE,33,5.6,8.2,84,0.00,,,-99.99,Meteorologica,2013-05-10 15:26:00,
2013-05-10 10:31:00,56.8,51.8,30.11,NNW,343,4.8,10.6,83,0.00,,,-99.99,Meteorologica,2013-05-10 15:31:00,
2013-05-10 10:36:00,57.0,51.8,30.11,WSW,239,5.2,8.2,82,0.00,,,-99.99,Meteorologica,2013-05-10 15:36:00,
2013-05-10 10:41:00,57.1,51.4,30.11,NNE,19,6.9,9.9,81,0.00,,,-99.99,Meteorologica,2013-05-10 15:41:00,
2013-05-10 10:46:00,57.3,51.9,30.11,NE,48,6.2,9.1,81,0.00,,,-99.99,Meteorologica,2013-05-10 15:46:00,
2013-05-10 10:51:00,57.5,52.3,30.12,SE,129,5.2,7.0,83,0.00,,,-99.99,Meteorologica,2013-05-10 15:51:00,
2013-05-10 10:56:00,57.7,52.4,30.13,NNW,344,0.8,7.7,82,0.00,,,-99.99,Meteorologica,2013-05-10 15:56:00,
2013-05-10 11:01:00,57.9,52.6,30.12,WSW,238,5.3,7.6,82,0.00,,,-99.99,Meteorologica,2013-05-10 16:01:00,
2013-05-10 11:06:00,58.0,52.4,30.12,NNE,16,3.4,8.7,81,0.00,,,-99.99,Meteorologica,2013-05-10 16:06:00,
2013-05-10 11:11:00,58.0,52.5,30.13,North,352,4.3,9.4,81,0.00,,,-99.99,Meteorologica,2013-05-10 16:11:00,
2013-05-10 11:16:00,58.2,52.9,30.13,SW,234,4.6,10.6,82,0.00,,,-99.99,Meteorologica,2013-05-10 16:16:00,
2013-05-10 11:21:00,58.3,52.6,30.13,SE,135,5.6,8.7,81,0.00,,,-99.99,Meteorologica,2013-05-10 16:21:00,
2013-05-10 11:26:00,58.7,53.0,30.13,North,2,0.0,7.9,81,0.00,,,-99.99,Meteorologica,2013-05-10 16:26:00,
2013-05-10 11:31:00,58.9,52.7,30.13,NE,47,6.4,8.9,79,0.00,,,-99.99,Meteorologica,2013-05-10 16:31:00,
2013-05-10 11:36:00,58.7,52.7,30.13,NNW,340,6.1,11.9,80,0.00,,,-99.99,Meteorologica,2013-05-10 16:36:00,
2013-05-10 11:41:00,58.8,53.3,30.13,SE,125,4.3,11.3,81,0.00,,,-99.99,Meteorologica,2013-05-10 16:41:00,
2013-05-10 11:46:00,58.8,52.9,30.14,WSW,246,5.6,8.7,80,0.00,,,-99.99,Meteorologica,2013-05-10 16:46:00,
2013-05-10 11:51:00,58.9,52.9,30.14,NNW,335,6.9,10.3,80,0.00,,,-99.99,Meteorologica,2013-05-10 16:51:00,
2013-05-10 11:56:00,59.0,53.2,30.14,SW,228,4.6,9.2,80,0.00,,,-99.99,Meteorologica,2013-05-10 16:56:00,
2013-05-10 12:01:00,59.2,52.8,30.14,NNE,33,6.7,9.9,78,0.00,,,-99.99,Meteorologica,2013-05-10 17:01:00,
2013-05-10 12:06:00,59.2,53.5,30.14,NNW,342,3.1,7.6,81,0.00,,,-99.99,Meteorologica,2013-05-10 17:06:00,
2013-05-10 12:11:00,59.5,53.2,30.14,North,359,1.6,6.3,79,0.00,,,-99.99,Meteorologica,2013-05-10 17:11:00,
2013-05-10 12:16:00,59.7,53.1,30.14,NW,323,2.8,11.8,78,0.00,,,-99.99,Meteorologica,2013-05-10 17:16:00,
2013-05-10 12:21:00,60.1,53.2,30.14,ENE,60,7.0,11.7,77,0.00,,,-99.99,Meteorologica,2013-05-10 17:21:00,
2013-05-10 12:26:00,60.5,52.9,30.14,North,5,3.8,8.8,75,0.00,,,-99.99,Meteorologica,2013-05-10 17:26:00,
2013-05-10 12:31:00,60.8,53.4,30.14,NE,34,3.8,7.2,76,0.00,,,-99.99,Meteorologica,2013-05-10 17:31:00,
2013-05-10 12:36:00,61.4,53.9,30.14,NW,319,2.7,9.6,76,0.00,,,-99.99,Meteorologica,2013-05-10 17:36:00,
2013-05-10 12:41:00,61.5,55.7,30.14,NE,50,5.1,7.6,81,0.00,,,-99.99,Meteorologica,2013-05-10 17:41:00,
2013-05-10 12:46:00,62.2,53.7,30.14,NNW,340,0.9,8.4,73,0.00,,,-99.99,Meteorologica,2013-05-10 17:46:00,
2013-05-10 12:51:00,61.9,54.6,30.14,NW,323,1.1,10.4,76,0.00,,,-99.99,Meteorologica,2013-05-10 17:51:00,
2013-05-10 12:56:00,62.1,53.5,30.14,NNW,345,5.3,7.4,73,0.00,,,-99.99,Meteorologica,2013-05-10 17:56:00,
2013-05-10 13:01:00,62.8,55.7,30.14,NNE,32,4.7,8.6,77,0.00,,,-99.99,Meteorologica,2013-05-10 18:01:00,
2013-05-10 13:06:00,63.1,53.9,30.14,SW,221,3.9,9.9,71,0.00,,,-99.99,Meteorologica,2013-05-10 18:06:00,
2013-05-10 13:11:00,62.9,54.1,30.13,NW,311,0.5,4.2,72,0.00,,,-99.99,Meteorologica,2013-05-10 18:11:00,
2013-05-10 13:16:00,62.6,54.0,30.14,SE,143,3.6,8.4,73,0.00,,,-99.99,Meteorologica,2013-05-10 18:16:00,
2013-05-10 13:21:00,62.7,53.8,30.14,West,275,0.9,8.2,72,0.00,,,-99.99,Meteorologica,2013-05-10 18:21:00,
2013-05-10 13:26:00,62.8,55.0,30.14,ESE,122,2.5,7.4,75,0.00,,,-99.99,Meteorologica,2013-05-10 18:26:00,
2013-05-10 13:31:00,63.3,55.5,30.14,NW,316,2.2,7.0,75,0.00,,,-99.99,Meteorologica,2013-05-10 18:31:00,
2013-05-10 13:36:00,63.6,54.6,30.14,ESE,120,2.7,6.1,72,0.00,,,-99.99,Meteorologica,2013-05-10 18:36:00,
2013-05-10 13:41:00,63.7,54.9,30.13,WSW,247,4.0,9.3,72,0.00,,,-99.99,Meteorologica,2013-05-10 18:41:00,
2013-05-10 13:46:00,64.3,55.0,30.13,North,2,0.0,8.4,71,0.00,,,-99.99,Meteorologica,2013-05-10 18:46:00,
2013-05-10 13:51:00,64.8,56.1,30.12,WSW,241,2.6,7.4,73,0.00,,,-99.99,Meteorologica,2013-05-10 18:51:00,
2013-05-10 13:56:00,65.3,54.4,30.12,NNE,14,0.3,7.3,67,0.00,,,-99.99,Meteorologica,2013-05-10 18:56:00,
2013-05-10 14:01:00,65.7,55.3,30.12,WNW,302,2.9,8.9,68,0.00,,,-99.99,Meteorologica,2013-05-10 19:01:00,
2013-05-10 14:06:00,66.0,55.2,30.12,NNW,341,3.4,10.4,67,0.00,,,-99.99,Meteorologica,2013-05-10 19:06:00,
2013-05-10 14:11:00,66.3,54.9,30.11,East,86,6.7,9.8,66,0.00,,,-99.99,Meteorologica,2013-05-10 19:11:00,
2013-05-10 14:16:00,66.5,54.0,30.12,East,79,6.3,10.1,63,0.00,,,-99.99,Meteorologica,2013-05-10 19:16:00,
2013-05-10 14:21:00,66.4,54.4,30.11,ENE,73,0.7,11.2,64,0.00,,,-99.99,Meteorologica,2013-05-10 19:21:00,
2013-05-10 14:26:00,66.6,54.0,30.11,West,275,4.4,6.9,63,0.00,,,-99.99,Meteorologica,2013-05-10 19:26:00,
2013-05-10 14:31:00,66.1,54.8,30.11,NNE,20,5.8,9.1,66,0.00,,,-99.99,Meteorologica,2013-05-10 19:31:00,
2013-05-10 14:36:00,66.8,54.7,30.11,South,171,2.4,7.6,66,0.00,,,-99.99,Meteorologica,2013-05-10 19:36:00,
2013-05-10 14:41:00,67.5,55.6,30.11,NNE,19,1.8,10.2,65,0.00,,,-99.99,Meteorologica,2013-05-10 19:41:00,
2013-05-10 14:46:00,68.1,54.4,30.11,NW,320,2.9,7.9,61,0.00,,,-99.99,Meteorologica,2013-05-10 19:46:00,
2013-05-10 14:51:00,68.4,55.4,30.10,NNW,338,0.9,6.1,62,0.00,,,-99.99,Meteorologica,2013-05-10 19:51:00,
2013-05-10 14:56:00,68.1,54.6,30.10,SE,133,5.6,8.6,61,0.00,,,-99.99,Meteorologica,2013-05-10 19:56:00,
2013-05-10 15:01:00,68.6,53.9,30.10,North,0,5.0,9.1,59,0.00,,,-99.99,Meteorologica,2013-05-10 20:01:00,
2013-05-10 15:06:00,68.8,53.4,30.10,NE,52,7.8,11.6,57,0.00,,,-99.99,Meteorologica,2013-05-10 20:06:00,
2013-05-10 15:11:00,68.4,53.6,30.10,NE,35,2.1,10.0,58,0.00,,,-99.99,Meteorologica,2013-05-10 20:11:00,
2013-05-10 15:16:00,68.5,52.8,30.09,ESE,120,6.1,10.4,57,0.00,,,-99.99,Meteorologica,2013-05-10 20:16:00,
2013-05-10 15:21:00,68.4,54.2,30.10,WSW,241,4.1,9.6,60,0.00,,,-99.99,Meteorologica,2013-05-10 20:21:00,
2013-05-10 15:26:00,68.4,53.5,30.09,NNE,18,1.6,6.3,58,0.00,,,-99.99,Meteorologica,2013-05-10 20:26:00,
2013-05-10 15:31:00,68.8,53.8,30.09,NNE,26,4.0,6.8,58,0.00,,,-99.99,Meteorologica,2013-05-10 20:31:00,
2013-05-10 15:36:00,68.9,51.7,30.09,NNW,337,4.8,11.1,54,0.00,,,-99.99,Meteorologica,2013-05-10 20:36:00,
2013-05-10 15:41:00,68.9,53.3,30.09,North,9,3.8,7.8,57,0.00,,,-99.99,Meteorologica,2013-05-10 20:41:00,
2013-05-10 15:46:00,68.7,53.3,30.08,ENE,70,0.6,10.0,57,0.00,,,-99.99,Meteorologica,2013-05-10 20:46:00,
2013-05-10 15:51:00,69.3,54.1,30.08,NNW,328,1.6,6.1,57,0.00,,,-99.99,Meteorologica,2013-05-10 20:51:00,
2013-05-10 15:56:00,69.7,53.1,30.08,NE,44,5.0,9.9,55,0.00,,,-99.99,Meteorologica,2013-05-10 20:56:00,
2013-05-10 16:01:00,70.0,52.9,30.08,ENE,74,1.9,9.2,54,0.00,,,-99.99,Meteorologica,2013-05-10 21:01:00,
2013-05-10 16:06:00,69.7,53.1,30.08,NNE,31,4.7,9.8,55,0.00,,,-99.99,Meteorologica,2013-05-10 21:06:00,
2013-05-10 16:11:00,70.2,53.6,30.07,NNE,21,1.1,6.1,57,0.00,,,-99.99,Meteorologica,2013-05-10 21:11:00,
2013-05-10 16:16:00,70.8,52.3,30.07,ESE,123,3.6,9.2,51,0.00,,,-99.99,Meteorologica,2013-05-10 21:16:00,
2013-05-10 16:21:00,71.0,53.3,30.07,NE,47,4.1,14.7,53,0.00,,,-99.99,Meteorologica,2013-05-10 21:21:00,
2013-05-10 16:26:00,70.5,52.9,30.07,WSW,238,5.6,10.3,53,0.00,,,-99.99,Meteorologica,2013-05-10 21:26:00,
2013-05-10 16:31:00,69.6,53.2,30.07,ENE,62,4.5,7.8,55,0.00,,,-99.99,Meteorologica,2013-05-10 21:31:00,
2013-05-10 16:36:00,69.4,51.4,30.07,ENE,61,6.2,9.0,52,0.00,,,-99.99,Meteorologica,2013-05-10 21:36:00,
2013-05-10 16:41:00,69.7,53.3,30.07,NW,304,2.7,6.6,55,0.00,,,-99.99,Meteorologica,2013-05-10 21:41:00,
2013-05-10 16:46:00,70.3,51.4,30.07,North,359,0.0,7.5,51,0.00,,,-99.99,Meteorologica,2013-05-10 21:46:00,
2013-05-10 16:51:00,70.3,52.1,30.06,North,359,0.0,2.6,52,0.00,,,-99.99,Meteorologica,2013-05-10 21:51:00,
2013-05-10 16:56:00,70.7,52.1,30.06,NE,49,4.6,5.9,51,0.00,,,-99.99,Meteorologica,2013-05-10 21:56:00,
2013-05-10 16:59:00,71.1,53.7,30.07,ESE,121,4.9,7.8,51,0.00,,,-99.99,Meteorologica,2013-05-10 21:59:00,
2013-05-10 17:00:00,71.1,52.8,30.07,North,4,2.0,7.8,52,0.00,,,-99.99,Meteorologica,2013-05-10 22:00:00,
2013-05-10 17:01:00,71.3,53.0,30.07,North,4,0.5,7.8,52,0.00,,,-99.99,Meteorologica,2013-05-10 22:01:00,
2013-05-10 17:02:00,71.3,53.0,30.07,NNW,345,3.4,7.4,52,0.00,,,-99.99,Meteorologica,2013-05-10 22:02:00,
2013-05-10 17:07:00,71.6,51.9,30.07,NNE,27,5.9,5.9,49,0.00,,,-99.99,Meteorologica,2013-05-10 22:07:00,
2013-05-10 17:09:00,71.5,52.2,30.07,NE,36,4.7,7.0,50,0.00,,,-99.99,Meteorologica,2013-05-10 22:09:00,
2013-05-10 17:14:00,70.8,51.4,30.07,North,2,0.0,0.0,50,0.00,,,-99.99,Meteorologica,2013-05-10 22:14:00,
2013-05-10 17:19:00,70.7,51.3,30.07,North,359,0.0,4.3,50,0.00,,,-99.99,Meteorologica,2013-05-10 22:19:00,
2013-05-10 17:24:00,71.0,51.5,30.07,ENE,64,1.9,8.6,50,0.00,,,-99.99,Meteorologica,2013-05-10 22:24:00,
2013-05-10 17:29:00,70.6,51.0,30.07,North,359,4.4,8.6,49,0.00,,,-99.99,Meteorologica,2013-05-10 22:29:00,
2013-05-10 17:34:00,69.7,50.5,30.07,NNW,331,5.9,7.4,50,0.00,,,-99.99,Meteorologica,2013-05-10 22:34:00,
2013-05-10 17:39:00,69.4,51.5,30.07,ENE,57,0.0,0.0,52,0.00,,,-99.99,Meteorologica,2013-05-10 22:39:00,
2013-05-10 17:44:00,69.6,51.1,30.06,ENE,57,0.0,0.0,51,0.00,,,-99.99,Meteorologica,2013-05-10 22:44:00,
2013-05-10 17:49:00,70.4,51.4,30.07,ENE,57,0.0,0.0,50,0.00,,,-99.99,Meteorologica,2013-05-10 22:49:00,
2013-05-10 17:54:00,70.9,50.7,30.06,North,0,3.5,6.8,48,0.00,,,-99.99,Meteorologica,2013-05-10 22:54:00,
2013-05-10 17:59:00,71.4,51.2,30.06,NNE,14,3.3,6.5,48,0.00,,,-99.99,Meteorologica,2013-05-10 22:59:00,
2013-05-10 18:04:00,71.6,52.2,30.06,NNE,14,0.0,0.0,50,0.00,,,-99.99,Meteorologica,2013-05-10 23:04:00,
2013-05-10 18:09:00,71.5,51.4,30.06,NE,50,0.0,4.2,49,0.00,,,-99.99,Meteorologica,2013-05-10 23:09:00,
2013-05-10 18:14:00,71.4,52.1,30.06,North,7,0.0,5.0,50,0.00,,,-99.99,Meteorologica,2013-05-10 23:14:00,
2013-05-10 18:19:00,71.4,51.1,30.06,NNW,333,0.7,3.2,48,0.00,,,-99.99,Meteorologica,2013-05-10 23:19:00,
2013-05-10 18:24:00,71.5,51.9,30.06,NNW,335,0.1,3.5,50,0.00,,,-99.99,Meteorologica,2013-05-10 23:24:00,
2013-05-10 18:29:00,71.3,51.7,30.06,NE,46,0.0,7.6,49,0.00,,,-99.99,Meteorologica,2013-05-10 23:29:00,
2013-05-10 18:34:00,70.9,51.1,30.06,North,359,0.0,5.1,49,0.00,,,-99.99,Meteorologica,2013-05-10 23:34:00,
2013-05-10 18:39:00,70.6,50.1,30.06,NE,50,0.0,3.2,48,0.00,,,-99.99,Meteorologica,2013-05-10 23:39:00,
2013-05-10 18:44:00,70.5,50.9,30.06,North,350,0.0,6.6,50,0.00,,,-99.99,Meteorologica,2013-05-10 23:44:00,
2013-05-10 18:49:00,70.5,51.5,30.06,NE,53,0.0,0.0,50,0.00,,,-99.99,Meteorologica,2013-05-10 23:49:00,
2013-05-10 18:54:00,70.5,51.1,30.06,NE,38,1.7,5.1,50,0.00,,,-99.99,Meteorologica,2013-05-10 23:54:00,
2013-05-10 18:59:00,70.5,51.3,30.06,NE,38,0.0,0.0,50,0.00,,,-99.99,Meteorologica,2013-05-10 23:59:00,
2013-05-10 19:04:00,70.5,50.7,30.06,NE,38,0.0,0.0,49,0.00,,,-99.99,Meteorologica,2013-05-11 00:04:00,
2013-05-10 19:09:00,70.4,50.5,30.06,NE,38,0.0,0.0,49,0.00,,,-99.99,Meteorologica,2013-05-11 00:09:00,
2013-05-10 19:14:00,70.3,51.2,30.06,NE,38,0.0,0.0,50,0.00,,,-99.99,Meteorologica,2013-05-11 00:14:00,
2013-05-10 19:19:00,70.3,51.4,30.06,NE,38,0.0,0.0,51,0.00,,,-99.99,Meteorologica,2013-05-11 00:19:00,
2013-05-10 19:24:00,70.5,52.0,30.05,NNE,21,0.3,2.7,51,0.00,,,-99.99,Meteorologica,2013-05-11 00:24:00,
2013-05-10 19:29:00,70.3,51.7,30.06,NNE,31,0.0,0.0,51,0.00,,,-99.99,Meteorologica,2013-05-11 00:29:00,
2013-05-10 19:34:00,70.0,51.2,30.05,NNE,31,0.0,0.0,51,0.00,,,-99.99,Meteorologica,2013-05-11 00:34:00,
2013-05-10 19:39:00,69.8,51.6,30.05,East,90,1.9,4.5,52,0.00,,,-99.99,Meteorologica,2013-05-11 00:39:00,
2013-05-10 19:44:00,69.4,51.7,30.06,NE,47,0.0,3.0,53,0.00,,,-99.99,Meteorologica,2013-05-11 00:44:00,
2013-05-10 19:49:00,69.0,52.0,30.05,NE,47,0.0,0.0,54,0.00,,,-99.99,Meteorologica,2013-05-11 00:49:00,
2013-05-10 19:54:00,68.5,52.0,30.06,NE,47,0.0,0.0,55,0.00,,,-99.99,Meteorologica,2013-05-11 00:54:00,
2013-05-10 19:59:00,68.2,52.2,30.06,NE,47,0.0,0.0,56,0.00,,,-99.99,Meteorologica,2013-05-11 00:59:00,
2013-05-10 20:04:00,68.0,52.0,30.06,NE,47,0.0,0.0,56,0.00,,,-99.99,Meteorologica,2013-05-11 01:04:00,
2013-05-10 20:09:00,67.7,52.1,30.06,NE,47,0.0,0.0,57,0.00,,,-99.99,Meteorologica,2013-05-11 01:09:00,
2013-05-10 20:14:00,67.3,52.1,30.06,NE,47,0.0,0.0,57,0.00,,,-99.99,Meteorologica,2013-05-11 01:14:00,
2013-05-10 20:19:00,67.0,52.3,30.06,NE,47,0.0,0.0,58,0.00,,,-99.99,Meteorologica,2013-05-11 01:19:00,
2013-05-10 20:24:00,66.7,52.3,30.06,NE,47,0.0,0.0,59,0.00,,,-99.99,Meteorologica,2013-05-11 01:24:00,
2013-05-10 20:29:00,66.2,52.5,30.06,NE,47,0.0,0.0,61,0.00,,,-99.99,Meteorologica,2013-05-11 01:29:00,
2013-05-10 20:34:00,65.8,52.5,30.06,NE,47,0.0,0.0,61,0.00,,,-99.99,Meteorologica,2013-05-11 01:34:00,
2013-05-10 20:39:00,65.3,52.2,30.06,NE,47,0.0,0.0,62,0.00,,,-99.99,Meteorologica,2013-05-11 01:39:00,
2013-05-10 20:44:00,64.8,52.2,30.06,NE,47,0.0,0.0,63,0.00,,,-99.99,Meteorologica,2013-05-11 01:44:00,
2013-05-10 20:49:00,64.2,52.2,30.06,NE,47,0.0,0.0,64,0.00,,,-99.99,Meteorologica,2013-05-11 01:49:00,
2013-05-10 20:54:00,63.8,52.2,30.07,NE,47,0.0,0.0,65,0.00,,,-99.99,Meteorologica,2013-05-11 01:54:00,
2013-05-10 20:59:00,63.4,52.3,30.07,NE,47,0.0,0.0,66,0.00,,,-99.99,Meteorologica,2013-05-11 01:59:00,
2013-05-10 21:04:00,62.9,52.4,30.07,NE,47,0.0,0.0,68,0.00,,,-99.99,Meteorologica,2013-05-11 02:04:00,
2013-05-10 21:09:00,62.4,52.6,30.07,NE,47,0.0,0.0,69,0.00,,,-99.99,Meteorologica,2013-05-11 02:09:00,
2013-05-10 21:14:00,61.9,53.0,30.07,NE,47,0.0,0.0,72,0.00,,,-99.99,Meteorologica,2013-05-11 02:14:00,
2013-05-10 21:19:00,61.5,53.1,30.07,NE,47,0.0,0.0,73,0.00,,,-99.99,Meteorologica,2013-05-11 02:19:00,
2013-05-10 21:24:00,61.0,53.4,30.07,NE,47,0.0,0.0,75,0.00,,,-99.99,Meteorologica,2013-05-11 02:24:00,
2013-05-10 21:29:00,60.5,53.1,30.07,NE,47,0.0,0.0,76,0.00,,,-99.99,Meteorologica,2013-05-11 02:29:00,
2013-05-10 21:34:00,60.2,52.8,30.07,NE,47,0.0,0.0,76,0.00,,,-99.99,Meteorologica,2013-05-11 02:34:00,
2013-05-10 21:39:00,59.9,59.9,30.07,NE,47,0.0,0.0,100,0.00,,,-99.99,Meteorologica,2013-05-11 02:39:00,
2013-05-10 21:44:00,59.6,52.8,30.08,NE,47,0.0,0.0,78,0.00,,,-99.99,Meteorologica,2013-05-11 02:44:00,
2013-05-10 21:49:00,59.4,52.8,30.08,NE,47,0.0,0.0,78,0.00,,,-99.99,Meteorologica,2013-05-11 02:49:00,
2013-05-10 21:54:00,59.2,52.8,30.08,NE,47,0.0,0.0,79,0.00,,,-99.99,Meteorologica,2013-05-11 02:54:00,
2013-05-10 21:59:00,58.8,52.5,30.08,NE,47,0.0,0.0,79,0.00,,,-99.99,Meteorologica,2013-05-11 02:59:00,
2013-05-10 22:04:00,58.7,52.6,30.08,NE,47,0.0,0.0,79,0.00,,,-99.99,Meteorologica,2013-05-11 03:04:00,
2013-05-10 22:09:00,58.5,52.5,30.09,NE,47,0.0,0.0,80,0.00,,,-99.99,Meteorologica,2013-05-11 03:09:00,
2013-05-10 22:14:00,58.4,52.4,30.09,NE,47,0.0,0.0,80,0.00,,,-99.99,Meteorologica,2013-05-11 03:14:00,
2013-05-10 22:19:00,58.2,52.3,30.09,NE,47,0.0,0.0,80,0.00,,,-99.99,Meteorologica,2013-05-11 03:19:00,
2013-05-10 22:24:00,58.0,52.2,30.09,NE,47,0.0,0.0,81,0.00,,,-99.99,Meteorologica,2013-05-11 03:24:00,
2013-05-10 22:29:00,57.8,52.2,30.09,NE,47,0.0,0.0,81,0.00,,,-99.99,Meteorologica,2013-05-11 03:29:00,
2013-05-10 22:34:00,57.4,52.0,30.10,NE,47,0.0,0.0,82,0.00,,,-99.99,Meteorologica,2013-05-11 03:34:00,
2013-05-10 22:39:00,57.2,51.8,30.10,NE,47,0.0,0.0,82,0.00,,,-99.99,Meteorologica,2013-05-11 03:39:00,
2013-05-10 22:44:00,57.0,51.7,30.10,NE,47,0.0,0.0,82,0.00,,,-99.99,Meteorologica,2013-05-11 03:44:00,
2013-05-10 22:49:00,56.9,51.7,30.10,NE,47,0.0,0.0,82,0.00,,,-99.99,Meteorologica,2013-05-11 03:49:00,
2013-05-10 22:54:00,56.7,51.7,30.10,NE,47,0.0,0.0,83,0.00,,,-99.99,Meteorologica,2013-05-11 03:54:00,
2013-05-10 22:59:00,56.6,51.7,30.10,NE,47,0.0,0.0,83,0.00,,,-99.99,Meteorologica,2013-05-11 03:59:00,
2013-05-10 23:02:00,56.4,51.5,30.10,NE,47,0.0,0.0,83,0.00,,,-99.99,Meteorologica,2013-05-11 04:02:00,
2013-05-10 23:03:00,56.4,51.6,30.10,NE,47,0.0,0.0,83,0.00,,,-99.99,Meteorologica,2013-05-11 04:03:00,
2013-05-10 23:05:00,56.4,51.6,30.10,NE,47,0.0,0.0,83,0.00,,,-99.99,Meteorologica,2013-05-11 04:05:00,
2013-05-10 23:06:00,56.4,51.6,30.10,NE,47,0.0,0.0,83,0.00,,,-99.99,Meteorologica,2013-05-11 04:06:00,
2013-05-10 23:11:00,56.3,51.6,30.10,NE,47,0.0,0.0,84,0.00,,,-99.99,Meteorologica,2013-05-11 04:11:00,
2013-05-10 23:13:00,56.3,51.7,30.10,NE,47,0.0,0.0,84,0.00,,,-99.99,Meteorologica,2013-05-11 04:13:00,
2013-05-10 23:18:00,56.1,51.5,30.09,NE,47,0.0,0.0,84,0.00,,,-99.99,Meteorologica,2013-05-11 04:18:00,
2013-05-10 23:23:00,55.8,51.4,30.10,NE,47,0.0,0.0,85,0.00,,,-99.99,Meteorologica,2013-05-11 04:23:00,
2013-05-10 23:28:00,55.5,51.3,30.09,NE,47,0.0,0.0,85,0.00,,,-99.99,Meteorologica,2013-05-11 04:28:00,
2013-05-10 23:33:00,55.3,51.3,30.10,NE,47,0.0,0.0,86,0.00,,,-99.99,Meteorologica,2013-05-11 04:33:00,
2013-05-10 23:38:00,55.0,51.1,30.10,NE,47,0.0,0.0,86,0.00,,,-99.99,Meteorologica,2013-05-11 04:38:00,
2013-05-10 23:43:00,54.7,51.0,30.10,NE,47,0.0,0.0,87,0.00,,,-99.99,Meteorologica,2013-05-11 04:43:00,
2013-05-10 23:48:00,54.6,50.9,30.10,NE,47,0.0,0.0,87,0.00,,,-99.99,Meteorologica,2013-05-11 04:48:00,
2013-05-10 23:53:00,54.3,50.8,30.10,NE,47,0.0,0.0,88,0.00,,,-99.99,Meteorologica,2013-05-11 04:53:00,
2013-05-10 23:58:00,54.1,50.7,30.10,NE,47,0.0,0.0,88,0.00,,,-99.99,Meteorologica,2013-05-11 04:58:00,